• In Uzbekistan
  • List of Countries
  • For 7 days
  • Water Temperature
  • Weather Map
  • Weather Widgets
  • user-avatar
    Login

    Hourly Weather Innsbruck

    Today, 23 September, Monday

    Time Temperature Precipitation Wind Pressure Humidity
    00:00 +6°C° 0 mm 1 mps 595 mmHg 89%
    01:00 +5°C° 0 mm 2 mps 594 mmHg 89%
    02:00 +6°C° 0 mm 1 mps 594 mmHg 89%
    03:00 +6°C° 0 mm 1 mps 594 mmHg 89%
    04:00 +6°C° 0 mm 1 mps 594 mmHg 89%
    05:00 +6°C° 0.3 mm 1 mps 595 mmHg 91%
    06:00 +6°C° 0.3 mm 1 mps 595 mmHg 92%
    07:00 +7°C° 0.3 mm 1 mps 595 mmHg 94%
    08:00 +7°C° 1.7 mm 1 mps 595 mmHg 95%
    09:00 +5°C° 1.7 mm 2 mps 596 mmHg 96%
    10:00 +5°C° 1.7 mm 2 mps 596 mmHg 97%
    11:00 +4°C° 3.3 mm 2 mps 596 mmHg 97%
    12:00 +4°C° 3.3 mm 2 mps 595 mmHg 97%
    13:00 +3°C° 3.3 mm 2 mps 595 mmHg 96%
    14:00 +3°C° 1 mm 2 mps 595 mmHg 95%
    15:00 +5°C° 1 mm 1 mps 595 mmHg 95%
    16:00 +5°C° 1 mm 1 mps 596 mmHg 94%
    17:00 +4°C° 0.1 mm 1 mps 595 mmHg 95%
    18:00 +4°C° 0.1 mm 1 mps 595 mmHg 95%
    19:00 +4°C° 0.1 mm 1 mps 595 mmHg 96%
    20:00 +3°C° 0 mm 1 mps 595 mmHg 96%
    21:00 +3°C° 0 mm 1 mps 596 mmHg 95%
    22:00 +2°C° 0 mm 1 mps 596 mmHg 95%
    23:00 +2°C° 0 mm 1 mps 595 mmHg 94%

    Tomorrow, 24 September, Tuesday

    Time Temperature Precipitation Wind Pressure Humidity
    00:00 +1°C° 0 mm 1 mps 595 mmHg 92%
    01:00 +1°C° 0 mm 1 mps 595 mmHg 91%
    02:00 0°C° 0 mm 1 mps 594 mmHg 90%
    03:00 0°C° 0 mm 1 mps 594 mmHg 89%
    04:00 0°C° 0 mm 1 mps 594 mmHg 88%
    05:00 +1°C° 0 mm 1 mps 594 mmHg 86%
    06:00 +1°C° 0 mm 1 mps 594 mmHg 85%
    07:00 +2°C° 0 mm 1 mps 594 mmHg 84%
    08:00 +4°C° 0 mm 1 mps 595 mmHg 77%
    09:00 +7°C° 0 mm 1 mps 596 mmHg 71%
    10:00 +9°C° 0 mm 1 mps 597 mmHg 64%
    11:00 +10°C° 0 mm 1 mps 597 mmHg 60%
    12:00 +11°C° 0 mm 1 mps 597 mmHg 55%
    13:00 +12°C° 0 mm 1 mps 597 mmHg 50%
    14:00 +12°C° 0 mm 1 mps 597 mmHg 51%
    15:00 +12°C° 0 mm 1 mps 596 mmHg 51%
    16:00 +12°C° 0 mm 1 mps 596 mmHg 52%
    17:00 +10°C° 0 mm 1 mps 595 mmHg 61%
    18:00 +7°C° 0 mm 1 mps 594 mmHg 70%
    19:00 +5°C° 0 mm 1 mps 594 mmHg 78%
    20:00 +5°C° 0 mm 1 mps 594 mmHg 79%
    21:00 +5°C° 0 mm 1 mps 594 mmHg 80%
    22:00 +5°C° 0 mm 1 mps 594 mmHg 81%
    23:00 +5°C° 0.1 mm 1 mps 594 mmHg 82%

    Day after tomorrow, 25 September, Wednesday

    Time Temperature Precipitation Wind Pressure Humidity
    00:00 +5°C° 0.1 mm 1 mps 593 mmHg 83%
    01:00 +3°C° 0.1 mm 0 mps 593 mmHg 84%
    02:00 +3°C° 0.3 mm 0 mps 593 mmHg 86%
    03:00 +3°C° 0.3 mm 0 mps 593 mmHg 89%
    04:00 +3°C° 0.3 mm 0 mps 593 mmHg 91%
    05:00 +3°C° 0.3 mm 0 mps 593 mmHg 90%
    06:00 +4°C° 0.3 mm 0 mps 593 mmHg 90%
    07:00 +4°C° 0.3 mm 0 mps 593 mmHg 89%
    08:00 +5°C° 0.3 mm 0 mps 593 mmHg 88%
    09:00 +6°C° 0.3 mm 1 mps 593 mmHg 86%
    10:00 +7°C° 0.3 mm 1 mps 594 mmHg 85%
    11:00 +6°C° 0.8 mm 1 mps 593 mmHg 87%
    12:00 +6°C° 0.8 mm 1 mps 593 mmHg 90%
    13:00 +5°C° 0.8 mm 1 mps 593 mmHg 93%
    14:00 +5°C° 0.5 mm 1 mps 593 mmHg 94%
    15:00 +5°C° 0.5 mm 1 mps 593 mmHg 94%
    16:00 +5°C° 0.5 mm 1 mps 593 mmHg 95%
    17:00 +4°C° 0.2 mm 1 mps 593 mmHg 96%
    18:00 +4°C° 0.2 mm 1 mps 593 mmHg 96%
    19:00 +4°C° 0.2 mm 1 mps 593 mmHg 97%
    20:00 +3°C° 0.1 mm 1 mps 593 mmHg 96%
    21:00 +3°C° 0.1 mm 1 mps 594 mmHg 96%
    22:00 +3°C° 0.1 mm 1 mps 594 mmHg 96%
    23:00 +3°C° 0 mm 1 mps 594 mmHg 96%

    26 September, Thursday

    Time Temperature Precipitation Wind Pressure Humidity
    00:00 +2°C° 0 mm 1 mps 594 mmHg 96%
    01:00 +2°C° 0 mm 1 mps 594 mmHg 96%
    02:00 +2°C° 0 mm 1 mps 594 mmHg 95%
    03:00 +1°C° 0 mm 1 mps 594 mmHg 94%
    04:00 +1°C° 0 mm 1 mps 594 mmHg 93%
    05:00 +1°C° 0 mm 1 mps 594 mmHg 91%
    06:00 +2°C° 0 mm 1 mps 594 mmHg 88%
    07:00 +3°C° 0 mm 1 mps 595 mmHg 86%
    08:00 +4°C° 0.1 mm 1 mps 596 mmHg 83%
    09:00 +5°C° 0.1 mm 1 mps 596 mmHg 80%
    10:00 +7°C° 0.1 mm 1 mps 597 mmHg 77%
    11:00 +7°C° 0.1 mm 1 mps 597 mmHg 77%
    12:00 +8°C° 0.1 mm 1 mps 597 mmHg 77%
    13:00 +8°C° 0.1 mm 1 mps 598 mmHg 77%
    14:00 +9°C° 0 mm 1 mps 598 mmHg 75%
    15:00 +8°C° 0 mm 0 mps 598 mmHg 72%
    16:00 +9°C° 0 mm 0 mps 598 mmHg 70%
    17:00 +7°C° 0 mm 0 mps 598 mmHg 77%
    18:00 +5°C° 0 mm 0 mps 597 mmHg 84%
    19:00 +3°C° 0 mm 0 mps 596 mmHg 92%
    20:00 +4°C° 0 mm 1 mps 596 mmHg 90%
    21:00 +4°C° 0 mm 1 mps 596 mmHg 89%
    22:00 +4°C° 0 mm 1 mps 597 mmHg 88%
    23:00 +4°C° 0 mm 1 mps 597 mmHg 87%

    27 September, Friday

    Time Temperature Precipitation Wind Pressure Humidity
    00:00 +4°C° 0 mm 1 mps 597 mmHg 85%
    01:00 +4°C° 0 mm 1 mps 597 mmHg 84%
    02:00 +4°C° 0 mm 1 mps 596 mmHg 84%
    03:00 +4°C° 0 mm 1 mps 596 mmHg 85%
    04:00 +4°C° 0 mm 1 mps 596 mmHg 85%
    05:00 +4°C° 0 mm 1 mps 596 mmHg 85%
    06:00 +4°C° 0 mm 1 mps 596 mmHg 85%
    07:00 +5°C° 0 mm 1 mps 596 mmHg 85%
    08:00 +7°C° 0 mm 1 mps 597 mmHg 78%
    09:00 +9°C° 0 mm 1 mps 598 mmHg 71%
    10:00 +11°C° 0 mm 1 mps 599 mmHg 63%
    11:00 +12°C° 0 mm 1 mps 599 mmHg 60%
    12:00 +13°C° 0 mm 1 mps 599 mmHg 57%
    13:00 +13°C° 0 mm 2 mps 599 mmHg 55%
    14:00 +12°C° 0 mm 2 mps 599 mmHg 61%
    15:00 +10°C° 0 mm 2 mps 598 mmHg 68%
    16:00 +10°C° 0 mm 1 mps 597 mmHg 74%
    17:00 +9°C° 0.1 mm 1 mps 597 mmHg 80%
    18:00 +7°C° 0.1 mm 1 mps 597 mmHg 85%
    19:00 +6°C° 0.1 mm 1 mps 596 mmHg 90%
    20:00 +6°C° 0.3 mm 1 mps 596 mmHg 91%
    21:00 +6°C° 0.3 mm 1 mps 597 mmHg 93%
    22:00 +6°C° 0.3 mm 1 mps 597 mmHg 94%
    23:00 +6°C° 0.2 mm 1 mps 597 mmHg 94%

    28 September, Saturday

    Time Temperature Precipitation Wind Pressure Humidity
    00:00 +6°C° 0.2 mm 1 mps 596 mmHg 95%
    01:00 +6°C° 0.2 mm 1 mps 596 mmHg 96%
    02:00 +6°C° 0.3 mm 1 mps 596 mmHg 96%
    03:00 +6°C° 0.3 mm 1 mps 596 mmHg 97%
    04:00 +6°C° 0.3 mm 1 mps 596 mmHg 97%
    05:00 +6°C° 0.2 mm 1 mps 596 mmHg 97%
    06:00 +6°C° 0.2 mm 1 mps 596 mmHg 97%
    07:00 +6°C° 0.2 mm 1 mps 596 mmHg 97%
    08:00 +6°C° 0.2 mm 1 mps 596 mmHg 96%
    09:00 +6°C° 0.2 mm 1 mps 596 mmHg 95%
    10:00 +7°C° 0.2 mm 1 mps 596 mmHg 94%
    11:00 +7°C° 0.2 mm 1 mps 596 mmHg 94%
    12:00 +7°C° 0.2 mm 1 mps 596 mmHg 93%
    13:00 +6°C° 0.2 mm 2 mps 596 mmHg 92%
    14:00 +7°C° 0.1 mm 1 mps 596 mmHg 93%
    15:00 +6°C° 0.1 mm 1 mps 595 mmHg 93%
    16:00 +6°C° 0.1 mm 1 mps 595 mmHg 94%
    17:00 +6°C° 0.1 mm 1 mps 595 mmHg 95%
    18:00 +5°C° 0.1 mm 1 mps 595 mmHg 96%
    19:00 +4°C° 0.1 mm 0 mps 595 mmHg 97%
    20:00 +4°C° 0 mm 0 mps 595 mmHg 97%
    21:00 +4°C° 0 mm 0 mps 595 mmHg 97%
    22:00 +4°C° 0 mm 0 mps 596 mmHg 97%
    23:00 +4°C° 0 mm 0 mps 595 mmHg 97%
    Show more